Regional Weather Roundup
Issued by NWS

Home | Current Version | Previous Version | Graphics & Text | Print | Product List | Glossary On
Versions: 1 2 3 4 5 6 7 8 9 10 11 12 13 14 15 16 17 18 19 20 21 22 23 24 25 26 27 28 29 30 31 32 33 34 35 36 37 38 39 40 41 42 43 44 45 46 47 48 49 50
000
ASUS43 KFSD 281802
RWRSD

WEATHER ROUNDUP FOR SOUTH DAKOTA
NATIONAL WEATHER SERVICE SIOUX FALLS SD
1200 PM CST WED JAN 28 2015

NOTE: "FAIR" INDICATES FEW OR NO CLOUDS BELOW 12,000 FEET WITH NO
SIGNIFICANT WEATHER AND/OR OBSTRUCTIONS TO VISIBILITY.


SDZ001>005-009-010-012>017-281900-
NORTHWEST AND NORTH CENTRAL SOUTH DAKOTA

CITY           SKY/WX    TMP DP  RH WIND       PRES   REMARKS
BUFFALO          N/A     48  29  47 NW33G45   29.81R
FAITH            N/A     52  27  38 NW21      29.83R
MOBRIDGE       CLOUDY    43  35  73 NW10      29.74S
$$

SDZ012>016-024>037-041>051-057-063-072>074-281900-
SOUTHWEST AND SOUTH CENTRAL SOUTH DAKOTA

CITY           SKY/WX    TMP DP  RH WIND       PRES   REMARKS
RAPID CTY ARPT CLOUDY    55  24  30 NW31G40   29.89R
PIERRE         MOSUNNY   49  34  56 NW20      29.74R
CUSTER         CLOUDY    48  18  30 MISG      29.95R
ELLSWORTH AFB  CLOUDY    55  25  32 NW33G39   29.88R
PHILIP         CLOUDY    57  29  34 NW22G33   29.81S
PINE RIDGE     MOSUNNY   57  32  38 W15G24    29.90R
WINNER         FAIR      58  33  39 NW18      29.75R
$$

SDZ004>011-016>023-039-040-281900-
NORTHEAST SOUTH DAKOTA

CITY           SKY/WX    TMP DP  RH WIND       PRES   REMARKS
ABERDEEN       MOSUNNY   41  33  73 CALM      29.74F
WATERTOWN      CLOUDY    34  31  88 SE9       29.71S WCI  27
SISSETON         N/A     33  32  96 S8        29.75F WCI  26
$$

SDZ017-020-022-023-036>040-048>070-281900-
SOUTHEAST SOUTH DAKOTA

CITY           SKY/WX    TMP DP  RH WIND       PRES   REMARKS
SIOUX FALLS    PTSUNNY   40  34  79 S13       29.73F
HURON          PTSUNNY   39  33  79 W5        29.71F
MITCHELL       PTSUNNY   44  35  70 CALM      29.70F
YANKTON        FAIR      46  34  61 S7        29.71F
$$

ABBREVIATIONS USED IN REMARKS
   TC - TEMPERATURE IN CELSIUS
  WCI - WIND CHILL INDEX
   HX - HEAT INDEX
  VSB - VISIBILITY



USA.gov is the U.S. government's official web portal to all federal, state and local government web resources and services.